Location: Zagreb
(45.8000°N, 16.0000°E)
Time: 15:11:33
(UTC+02:00)

Transit 2A Rocket - Visible Passes

Search period start: 14 July 2024 00:00
Search period end: 24 July 2024 00:00
Orbit: 582 x 910 km, 66.7° (Epoch: 13 July)

Date Brightness Start Highest point End Pass type
(mag) Time Alt. Az. Time Alt. Az. Time Alt. Az.
14 Jul 5.3 00:52:51 10° NW 00:58:57 69° WSW 01:00:32 49° S visible
14 Jul 7.3 02:38:18 10° W 02:40:18 12° W 02:40:18 12° W visible
14 Jul 7.3 22:26:41 10° NNW 22:31:16 21° NE 22:35:49 10° E visible
15 Jul 5.4 00:08:41 10° NNW 00:14:49 77° NE 00:17:11 39° SE visible
15 Jul 6.7 01:52:22 10° WNW 01:56:43 21° WSW 01:56:57 21° WSW visible
15 Jul 7.5 21:42:51 10° N 21:46:33 16° NNE 21:50:14 10° ENE visible
15 Jul 5.9 23:24:37 10° NNW 23:30:33 50° NE 23:33:53 25° ESE visible
16 Jul 6.1 01:07:32 10° NW 01:12:56 34° WSW 01:13:39 33° SW visible
16 Jul 6.5 22:40:37 10° NNW 22:46:09 34° NE 22:50:38 14° ESE visible
17 Jul 5.5 00:23:04 10° NW 00:29:01 56° WSW 00:30:24 45° SSW visible
17 Jul 7.0 21:56:41 10° NNW 22:01:36 25° NE 22:06:29 10° E visible
17 Jul 5.3 23:38:48 10° NNW 23:44:57 88° WSW 23:47:11 41° SSE visible
18 Jul 7.1 01:23:04 10° WNW 01:26:37 16° WSW 01:26:58 16° WSW visible
18 Jul 7.3 21:12:49 10° NNW 21:16:56 18° NNE 21:21:02 10° ENE visible
18 Jul 5.6 22:54:41 10° NNW 23:00:45 61° NE 23:04:01 27° SE visible
19 Jul 6.5 00:37:54 10° NW 00:42:54 27° WSW 00:43:48 26° WSW visible
19 Jul 6.2 22:10:39 10° NNW 22:16:24 41° NE 22:20:54 15° ESE visible
19 Jul 5.9 23:53:17 10° NW 23:59:02 44° WSW 00:00:41 36° SSW visible
20 Jul 6.7 21:26:41 10° NNW 21:31:54 29° NE 21:37:02 10° E visible
20 Jul 5.4 23:08:56 10° NW 23:15:02 72° WSW 23:17:36 35° SSE visible
21 Jul 7.4 00:54:11 10° WNW 00:56:28 12° W 00:57:23 12° WSW visible
21 Jul 5.4 22:24:45 10° NNW 22:30:53 74° NE 22:34:34 24° SE visible
22 Jul 6.9 00:08:22 10° WNW 00:12:48 22° WSW 00:14:21 19° SW visible
22 Jul 5.9 21:40:40 10° NNW 21:46:36 49° NE 21:51:34 14° ESE visible
22 Jul 6.3 23:23:33 10° NW 23:28:59 35° WSW 23:31:21 26° SSW visible
23 Jul 5.7 22:39:05 10° NW 22:45:03 58° WSW 22:48:24 25° S visible
